Location: Newark
(58.8333°N, 23.5833°E)
Time: 13:28:49
(UTC+00:00)

METEOR M2 - Pass Details

Date: 11 December 2019
Orbit: 819 x 827 km, 98.5° (Epoch: 23 January)

Event Time Altitude Azimuth Distance (km) Brightness Sun altitude
Rises 05:57:55 0° 21° (NNE) 3,367 ? -7.7°
Reaches altitude 10° 06:00:48 10° 36° (NE) 2,429 ? -7.4°
Maximum altitude 06:04:59 23° 88° (E) 1,699 ? -6.9°
Drops below altitude 10° 06:09:09 10° 139° (SE) 2,416 ? -6.5°
Sets 06:12:00 0° 154° (SSE) 3,344 ? -6.2°
